START_TIME,STEP,MOV.,AL01,t_acc.,AL02,t_acc.,E37,t_acc.,H21,t_acc.
1979-07-16 09:00:34.480 ,0,0,0.,24.0,0.,24.0,1.,24.0,0.,24.0
1979-07-16 09:00:58.480 ,0,1,1.,24.0,0.,24.0,2.,24.0,0.,24.0
1979-07-16 09:01:22.480 ,0,0,0.,24.0,0.,24.0,0.,24.0,0.,24.0
1979-07-16 09:01:46.480 ,1,1,0.,24.0,1.,24.0,0.,24.0,0.,24.0
1979-07-16 09:02:10.480 ,1,0,0.,24.0,0.,24.0,1.,24.0,0.,24.0
1979-07-16 09:02:34.480 ,2,1,0.,24.0,0.,24.0,1.,24.0,0.,24.0
1979-07-16 09:02:58.480 ,2,0,0.,24.0,0.,24.0,1.,24.0,0.,24.0
1979-07-16 09:03:22.480 ,3,1,0.,24.0,0.,24.0,0.,24.0,0.,24.0
1979-07-16 09:03:46.480 ,3,0,0.,24.0,1.,24.0,0.,24.0,0.,24.0
1979-07-16 09:04:10.480 ,4,1,0.,24.0,0.,24.0,0.,24.0,0.,24.0
1979-07-16 09:04:34.480 ,4,0,2.,24.0,1.,24.0,1.,24.0,0.,24.0
1979-07-16 09:04:58.480 ,5,1,1.,24.0,0.,24.0,2.,24.0,0.,24.0
1979-07-16 09:05:22.480 ,5,0,0.,24.0,0.,24.0,2.,24.0,0.,24.0
1979-07-16 09:05:46.480 ,6,1,1.,24.0,0.,24.0,1.,24.0,0.,24.0
1979-07-16 09:06:10.470 ,6,0,0.,24.0,0.,24.0,2.,24.0,0.,24.0
1979-07-16 09:06:34.480 ,7,0,3.,24.0,0.,24.0,0.,24.0,0.,24.0
1979-07-16 09:06:58.480 ,7,0,28.,24.0,0.,24.0,1.,24.0,0.,24.0
1979-07-16 09:07:22.480 ,5,1,15.,24.0,0.,24.0,0.,24.0,0.,24.0
1979-07-16 09:07:46.480 ,1,1,0.,24.0,0.,24.0,1.,24.0,0.,24.0
1979-07-16 09:08:10.470 ,2,1,1.,24.0,0.,24.0,0.,24.0,0.,24.0
1979-07-16 09:08:34.470 ,6,1,0.,24.0,0.,24.0,1.,24.0,0.,24.0
1979-07-16 09:08:58.470 ,5,1,13.,24.0,0.,24.0,0.,24.0,0.,24.0
1979-07-16 09:09:22.470 ,1,1,1.,24.0,0.,24.0,0.,24.0,0.,24.0
1979-07-16 09:09:46.470 ,2,1,0.,24.0,0.,24.0,0.,24.0,0.,24.0
1979-07-16 09:10:10.470 ,6,1,0.,24.0,0.,24.0,0.,24.0,0.,24.0
1979-07-16 09:10:34.470 ,5,1,14.,24.0,0.,24.0,0.,24.0,0.,24.0
1979-07-16 09:10:58.470 ,1,1,0.,24.0,0.,24.0,0.,24.0,0.,24.0
1979-07-16 09:11:22.470 ,2,1,0.,24.0,0.,24.0,1.,24.0,0.,24.0
1979-07-16 09:11:46.470 ,6,1,1.,24.0,0.,24.0,2.,24.0,0.,24.0
1979-07-16 09:12:10.470 ,5,1,9.,24.0,1.,24.0,0.,24.0,0.,24.0
1979-07-16 09:12:34.470 ,1,1,0.,24.0,1.,24.0,0.,24.0,0.,24.0
1979-07-16 09:12:58.470 ,2,1,0.,24.0,0.,24.0,3.,24.0,0.,24.0
1979-07-16 09:13:22.470 ,6,1,0.,24.0,0.,24.0,0.,24.0,0.,24.0
1979-07-16 09:13:46.470 ,5,1,15.,24.0,0.,24.0,0.,24.0,0.,24.0
1979-07-16 09:14:10.470 ,1,1,0.,24.0,0.,24.0,0.,24.0,0.,24.0
1979-07-16 09:14:34.470 ,2,1,1.,24.0,0.,24.0,0.,24.0,0.,24.0
1979-07-16 09:14:58.470 ,6,1,0.,24.0,0.,24.0,0.,24.0,0.,24.0
1979-07-16 09:15:22.470 ,5,1,16.,24.0,0.,24.0,3.,24.0,0.,24.0
1979-07-16 09:15:46.470 ,1,1,2.,24.0,0.,24.0,0.,24.0,0.,24.0
1979-07-16 09:16:10.470 ,2,1,0.,24.0,0.,24.0,0.,24.0,0.,24.0
1979-07-16 09:16:34.470 ,6,1,0.,24.0,1.,24.0,0.,24.0,0.,24.0
1979-07-16 09:16:58.470 ,5,1,16.,24.0,0.,24.0,1.,24.0,0.,24.0
1979-07-16 09:17:22.480 ,1,1,0.,24.0,0.,24.0,0.,24.0,0.,24.0
1979-07-16 09:17:46.480 ,0,0,0.,24.0,1.,24.0,2.,24.0,0.,24.0
1979-07-16 09:18:10.480 ,0,0,0.,24.0,1.,24.0,0.,24.0,0.,24.0
1979-07-16 09:18:34.470 ,5,1,18.,24.0,0.,24.0,0.,24.0,0.,24.0
1979-07-16 09:18:58.470 ,5,0,0.,24.0,0.,24.0,0.,24.0,0.,24.0
1979-07-16 09:19:22.470 ,4,1,0.,24.0,0.,24.0,0.,24.0,0.,24.0
1979-07-16 09:19:46.470 ,4,0,0.,24.0,0.,24.0,0.,24.0,0.,24.0
1979-07-16 09:20:10.470 ,3,1,2.,24.0,0.,24.0,0.,24.0,0.,24.0
1979-07-16 09:20:34.470 ,3,0,1.,24.0,0.,24.0,0.,24.0,0.,24.0
1979-07-16 09:20:58.470 ,2,1,0.,24.0,0.,24.0,0.,24.0,0.,24.0
1979-07-16 09:21:22.470 ,2,0,0.,24.0,0.,24.0,1.,24.0,0.,24.0
1979-07-16 09:21:46.470 ,1,1,0.,24.0,0.,24.0,0.,24.0,0.,24.0
1979-07-16 09:22:10.470 ,1,0,0.,24.0,0.,24.0,0.,24.0,0.,24.0
1979-07-16 09:22:34.470 ,0,1,0.,24.0,0.,24.0,1.,24.0,0.,24.0
1979-07-16 09:22:58.470 ,0,0,0.,24.0,0.,24.0,0.,24.0,0.,24.0
1979-07-16 09:23:22.470 ,0,1,0.,24.0,0.,24.0,0.,24.0,0.,24.0
1979-07-16 09:23:46.470 ,0,0,1.,24.0,0.,24.0,0.,24.0,0.,24.0
1979-07-16 09:24:10.470 ,1,1,0.,24.0,0.,24.0,0.,24.0,0.,24.0
1979-07-16 09:24:34.470 ,1,0,0.,24.0,0.,24.0,2.,24.0,0.,24.0
1979-07-16 09:24:58.470 ,2,1,0.,24.0,0.,24.0,1.,24.0,0.,24.0
1979-07-16 09:25:22.470 ,2,0,0.,24.0,0.,24.0,0.,24.0,0.,24.0
1979-07-16 09:25:46.470 ,3,1,1.,24.0,0.,24.0,1.,24.0,0.,24.0
1979-07-16 09:26:10.470 ,3,0,1.,24.0,0.,24.0,0.,24.0,0.,24.0
1979-07-16 09:26:34.470 ,4,1,1.,24.0,0.,24.0,0.,24.0,0.,24.0
1979-07-16 09:26:58.470 ,4,0,1.,24.0,0.,24.0,0.,24.0,0.,24.0
1979-07-16 09:27:22.470 ,5,1,,0,,0,,0,,0
1979-07-16 09:27:46.470 ,5,0,0.,24.0,0.,24.0,1.,24.0,0.,24.0
1979-07-16 09:28:10.470 ,6,1,1.,24.0,1.,24.0,0.,24.0,0.,24.0
1979-07-16 09:28:34.470 ,6,0,2.,24.0,0.,24.0,0.,24.0,0.,24.0
1979-07-16 09:28:58.470 ,7,1,7.,24.0,0.,24.0,0.,24.0,0.,24.0
1979-07-16 09:29:22.470 ,7,0,28.,24.0,0.,24.0,0.,24.0,0.,24.0
1979-07-16 09:29:46.470 ,7,1,23.,24.0,0.,24.0,2.,24.0,0.,24.0
1979-07-16 09:30:10.470 ,7,0,35.,24.0,0.,24.0,0.,24.0,0.,24.0
1979-07-16 09:30:34.470 ,6,1,23.,24.0,0.,24.0,0.,24.0,0.,24.0
1979-07-16 09:30:58.470 ,6,0,1.,24.0,2.,24.0,0.,24.0,0.,24.0
1979-07-16 09:31:22.470 ,5,1,0.,24.0,0.,24.0,1.,24.0,0.,24.0
1979-07-16 09:31:46.470 ,5,0,1.,24.0,0.,24.0,0.,24.0,0.,24.0
1979-07-16 09:32:10.470 ,4,1,0.,24.0,1.,24.0,0.,24.0,0.,24.0
1979-07-16 09:32:34.470 ,4,0,1.,24.0,0.,24.0,0.,24.0,0.,24.0
1979-07-16 09:32:58.470 ,3,1,0.,24.0,0.,24.0,1.,24.0,0.,24.0
1979-07-16 09:33:22.470 ,3,0,1.,24.0,1.,24.0,0.,24.0,0.,24.0
1979-07-16 09:33:46.470 ,2,1,0.,24.0,0.,24.0,0.,24.0,0.,24.0
1979-07-16 09:34:10.470 ,2,0,0.,24.0,1.,24.0,0.,24.0,0.,24.0
1979-07-16 09:34:34.470 ,1,1,1.,24.0,0.,24.0,1.,24.0,0.,24.0
1979-07-16 09:34:58.470 ,1,0,1.,24.0,1.,24.0,1.,24.0,0.,24.0
1979-07-16 09:35:22.470 ,0,1,0.,24.0,0.,24.0,0.,24.0,0.,24.0
1979-07-16 09:35:46.470 ,0,0,0.,24.0,0.,24.0,0.,24.0,0.,24.0
1979-07-16 09:36:10.470 ,0,1,0.,24.0,1.,24.0,0.,24.0,0.,24.0
1979-07-16 09:36:34.470 ,0,0,1.,24.0,1.,24.0,0.,24.0,0.,24.0
1979-07-16 09:36:58.470 ,1,1,0.,24.0,0.,24.0,1.,24.0,0.,24.0
1979-07-16 09:37:22.470 ,1,0,0.,24.0,0.,24.0,0.,24.0,0.,24.0
1979-07-16 09:37:46.470 ,2,1,0.,24.0,0.,24.0,1.,24.0,0.,24.0
1979-07-16 09:38:10.470 ,2,0,0.,24.0,0.,24.0,1.,24.0,0.,24.0
1979-07-16 09:38:34.470 ,3,1,0.,24.0,0.,24.0,0.,24.0,0.,24.0
1979-07-16 09:38:58.470 ,3,0,0.,24.0,0.,24.0,0.,24.0,0.,24.0
1979-07-16 09:39:22.470 ,4,1,0.,24.0,2.,24.0,0.,24.0,0.,24.0
1979-07-16 09:39:46.470 ,4,0,0.,24.0,0.,24.0,0.,24.0,0.,24.0
1979-07-16 09:40:10.470 ,5,1,0.,24.0,0.,24.0,1.,24.0,0.,24.0
1979-07-16 09:40:34.470 ,5,0,1.,24.0,0.,24.0,1.,24.0,0.,24.0
1979-07-16 09:40:58.470 ,6,1,0.,24.0,0.,24.0,0.,24.0,0.,24.0
1979-07-16 09:41:22.470 ,6,0,1.,24.0,0.,24.0,2.,24.0,0.,24.0
1979-07-16 09:41:46.470 ,7,1,5.,24.0,1.,24.0,1.,24.0,0.,24.0
1979-07-16 09:42:10.470 ,7,0,21.,24.0,0.,24.0,0.,24.0,0.,24.0
1979-07-16 09:42:34.470 ,7,1,27.,24.0,0.,24.0,2.,24.0,0.,24.0
1979-07-16 09:42:58.470 ,7,0,28.,24.0,0.,24.0,0.,24.0,0.,24.0
1979-07-16 09:43:22.470 ,6,1,26.,24.0,0.,24.0,0.,24.0,0.,24.0
1979-07-16 09:43:46.470 ,6,0,0.,24.0,0.,24.0,1.,24.0,0.,24.0
1979-07-16 09:44:10.470 ,5,1,0.,24.0,1.,24.0,0.,24.0,0.,24.0
1979-07-16 09:44:34.470 ,5,0,0.,24.0,0.,24.0,0.,24.0,0.,24.0
1979-07-16 09:44:58.470 ,4,1,0.,24.0,2.,24.0,0.,24.0,0.,24.0
1979-07-16 09:45:22.470 ,4,0,0.,24.0,0.,24.0,0.,24.0,0.,24.0
1979-07-16 09:45:46.470 ,3,1,1.,24.0,0.,24.0,0.,24.0,0.,24.0
1979-07-16 09:46:10.470 ,3,0,0.,24.0,0.,24.0,0.,24.0,0.,24.0
1979-07-16 09:46:34.470 ,2,1,1.,24.0,0.,24.0,1.,24.0,0.,24.0
1979-07-16 09:46:58.470 ,2,0,2.,24.0,0.,24.0,0.,24.0,0.,24.0
1979-07-16 09:47:22.470 ,1,1,0.,24.0,0.,24.0,0.,24.0,0.,24.0
1979-07-16 09:47:46.470 ,1,0,0.,24.0,0.,24.0,0.,24.0,0.,24.0
1979-07-16 09:48:10.470 ,0,0,0.,24.0,0.,24.0,0.,24.0,0.,24.0
1979-07-16 09:48:34.470 ,0,0,0.,24.0,0.,24.0,0.,24.0,0.,24.0
1979-07-16 09:48:58.470 ,0,1,0.,24.0,0.,24.0,0.,24.0,0.,24.0
1979-07-16 09:49:22.470 ,0,0,0.,24.0,0.,24.0,1.,24.0,0.,24.0
1979-07-16 09:49:46.470 ,1,1,1.,24.0,1.,24.0,1.,24.0,0.,24.0
1979-07-16 09:50:10.470 ,1,0,1.,24.0,1.,24.0,0.,24.0,0.,24.0
1979-07-16 09:50:34.470 ,2,1,1.,24.0,0.,24.0,1.,24.0,0.,24.0
1979-07-16 09:50:58.470 ,2,0,0.,24.0,1.,24.0,0.,24.0,0.,24.0
1979-07-16 09:51:22.470 ,3,1,0.,24.0,0.,24.0,0.,24.0,0.,24.0
1979-07-16 09:51:46.470 ,3,0,0.,24.0,0.,24.0,0.,24.0,0.,24.0
1979-07-16 09:52:10.470 ,4,1,0.,24.0,0.,24.0,0.,24.0,0.,24.0
1979-07-16 09:52:34.470 ,4,0,0.,24.0,0.,24.0,1.,24.0,0.,24.0
1979-07-16 09:52:58.470 ,5,1,0.,24.0,0.,24.0,0.,24.0,0.,24.0
1979-07-16 09:53:22.470 ,5,0,0.,24.0,0.,24.0,1.,24.0,0.,24.0
1979-07-16 09:53:46.470 ,6,1,0.,24.0,1.,24.0,0.,24.0,0.,24.0
1979-07-16 09:54:10.470 ,6,0,1.,24.0,0.,24.0,2.,24.0,0.,24.0
1979-07-16 09:54:34.470 ,7,0,6.,24.0,0.,24.0,1.,24.0,0.,24.0
1979-07-16 09:54:58.470 ,7,0,40.,24.0,0.,24.0,0.,24.0,0.,24.0
1979-07-16 09:55:22.470 ,5,1,15.,24.0,1.,24.0,1.,24.0,0.,24.0
1979-07-16 09:55:46.470 ,1,1,1.,24.0,0.,24.0,2.,24.0,0.,24.0
1979-07-16 09:56:10.470 ,2,1,1.,24.0,0.,24.0,0.,24.0,0.,24.0
1979-07-16 09:56:34.470 ,6,1,1.,24.0,0.,24.0,0.,24.0,0.,24.0
1979-07-16 09:56:58.470 ,5,1,19.,24.0,0.,24.0,0.,24.0,0.,24.0
1979-07-16 09:57:22.470 ,1,1,0.,24.0,0.,24.0,0.,24.0,0.,24.0
1979-07-16 09:57:46.470 ,2,1,2.,24.0,0.,24.0,1.,24.0,0.,24.0
1979-07-16 09:58:10.470 ,6,1,0.,24.0,0.,24.0,1.,24.0,0.,24.0
1979-07-16 09:58:34.470 ,5,1,21.,24.0,0.,24.0,0.,24.0,0.,24.0
1979-07-16 09:58:58.470 ,1,1,0.,24.0,0.,24.0,0.,24.0,0.,24.0
1979-07-16 09:59:22.470 ,2,1,0.,24.0,0.,24.0,0.,24.0,0.,24.0
1979-07-16 09:59:46.470 ,6,1,2.,24.0,0.,24.0,0.,24.0,0.,24.0
1979-07-16 10:00:10.470 ,5,1,11.,24.0,0.,24.0,0.,24.0,0.,24.0
1979-07-16 10:00:34.470 ,1,1,0.,24.0,0.,24.0,0.,24.0,0.,24.0
1979-07-16 10:00:58.470 ,2,1,0.,24.0,0.,24.0,1.,24.0,0.,24.0
1979-07-16 10:01:22.470 ,6,1,1.,24.0,0.,24.0,0.,24.0,0.,24.0
1979-07-16 10:01:46.470 ,5,1,16.,24.0,0.,24.0,0.,24.0,0.,24.0
1979-07-16 10:02:10.470 ,1,1,0.,24.0,0.,24.0,0.,24.0,0.,24.0
1979-07-16 10:02:34.470 ,2,1,0.,24.0,0.,24.0,0.,24.0,0.,24.0
1979-07-16 10:02:58.470 ,6,1,0.,24.0,0.,24.0,1.,24.0,0.,24.0
1979-07-16 10:03:22.470 ,5,1,7.,24.0,0.,24.0,0.,24.0,0.,24.0
1979-07-16 10:03:46.470 ,1,1,0.,24.0,0.,24.0,0.,24.0,0.,24.0
1979-07-16 10:04:10.470 ,2,1,1.,24.0,0.,24.0,0.,24.0,0.,24.0
1979-07-16 10:04:34.470 ,6,1,1.,24.0,0.,24.0,0.,24.0,0.,24.0
1979-07-16 10:04:58.470 ,5,1,20.,24.0,0.,24.0,1.,24.0,0.,24.0
1979-07-16 10:05:22.470 ,1,1,0.,24.0,0.,24.0,1.,24.0,0.,24.0
1979-07-16 10:05:46.470 ,0,0,0.,24.0,0.,24.0,1.,24.0,0.,24.0
1979-07-16 10:06:10.470 ,0,0,1.,24.0,1.,24.0,0.,24.0,0.,24.0
1979-07-16 10:06:34.470 ,5,1,22.,24.0,0.,24.0,2.,24.0,0.,24.0
1979-07-16 10:06:58.470 ,5,0,0.,24.0,0.,24.0,0.,24.0,0.,24.0
1979-07-16 10:07:22.470 ,4,1,0.,24.0,0.,24.0,0.,24.0,0.,24.0
1979-07-16 10:07:46.470 ,4,0,0.,24.0,0.,24.0,0.,24.0,0.,24.0
1979-07-16 10:08:10.470 ,3,1,0.,24.0,1.,24.0,1.,24.0,0.,24.0
1979-07-16 10:08:34.470 ,3,0,0.,24.0,0.,24.0,0.,24.0,0.,24.0
1979-07-16 10:08:58.470 ,2,1,1.,24.0,0.,24.0,1.,24.0,0.,24.0
1979-07-16 10:09:22.470 ,2,0,2.,24.0,0.,24.0,1.,24.0,0.,24.0
1979-07-16 10:09:46.470 ,1,1,1.,24.0,0.,24.0,1.,24.0,0.,24.0
1979-07-16 10:10:10.470 ,1,0,0.,24.0,1.,24.0,0.,24.0,0.,24.0
1979-07-16 10:10:34.470 ,0,1,2.,24.0,0.,24.0,0.,24.0,0.,24.0
1979-07-16 10:10:58.470 ,0,0,0.,24.0,1.,24.0,3.,24.0,0.,24.0
1979-07-16 10:11:22.470 ,0,1,0.,24.0,1.,24.0,0.,24.0,0.,24.0
1979-07-16 10:11:46.470 ,0,0,0.,24.0,0.,24.0,1.,24.0,0.,24.0
1979-07-16 10:12:10.470 ,1,1,0.,24.0,0.,24.0,1.,24.0,0.,24.0
1979-07-16 10:12:34.470 ,1,0,1.,24.0,0.,24.0,0.,24.0,0.,24.0
1979-07-16 10:12:58.470 ,2,1,0.,24.0,0.,24.0,0.,24.0,0.,24.0
1979-07-16 10:13:22.470 ,2,0,1.,24.0,0.,24.0,0.,24.0,0.,24.0
1979-07-16 10:13:46.470 ,3,1,0.,24.0,1.,24.0,1.,24.0,0.,24.0
1979-07-16 10:14:10.470 ,3,0,1.,24.0,0.,24.0,0.,24.0,0.,24.0
1979-07-16 10:14:34.470 ,4,1,1.,24.0,0.,24.0,0.,24.0,0.,24.0
1979-07-16 10:14:58.470 ,4,0,0.,24.0,0.,24.0,1.,24.0,0.,24.0
1979-07-16 10:15:22.470 ,5,1,1.,24.0,0.,24.0,1.,24.0,0.,24.0
1979-07-16 10:15:46.470 ,5,0,0.,24.0,0.,24.0,1.,24.0,0.,24.0
1979-07-16 10:16:10.470 ,6,1,0.,24.0,0.,24.0,2.,24.0,0.,24.0
1979-07-16 10:16:34.470 ,6,0,1.,24.0,0.,24.0,2.,24.0,0.,24.0
1979-07-16 10:16:58.470 ,7,1,6.,24.0,0.,24.0,1.,24.0,0.,24.0
1979-07-16 10:17:22.470 ,7,0,34.,24.0,0.,24.0,0.,24.0,0.,24.0
1979-07-16 10:17:46.470 ,7,1,36.,24.0,0.,24.0,3.,24.0,0.,24.0
1979-07-16 10:18:10.470 ,7,0,26.,24.0,0.,24.0,2.,24.0,0.,24.0
1979-07-16 10:18:34.470 ,6,1,21.,24.0,0.,24.0,1.,24.0,0.,24.0
1979-07-16 10:18:58.470 ,6,0,0.,24.0,0.,24.0,1.,24.0,0.,24.0
1979-07-16 10:19:22.470 ,5,1,0.,24.0,0.,24.0,1.,24.0,0.,24.0
1979-07-16 10:19:46.470 ,5,0,0.,24.0,1.,24.0,2.,24.0,0.,24.0
1979-07-16 10:20:10.470 ,4,1,1.,24.0,1.,24.0,1.,24.0,0.,24.0
1979-07-16 10:20:34.470 ,4,0,0.,24.0,1.,24.0,0.,24.0,0.,24.0
1979-07-16 10:20:58.470 ,3,1,1.,24.0,0.,24.0,0.,24.0,0.,24.0
1979-07-16 10:21:22.470 ,3,0,0.,24.0,0.,24.0,1.,24.0,0.,24.0
1979-07-16 10:21:46.470 ,2,1,0.,24.0,1.,24.0,1.,24.0,0.,24.0
1979-07-16 10:22:10.470 ,2,0,1.,24.0,0.,24.0,0.,24.0,0.,24.0
1979-07-16 10:22:34.470 ,1,1,1.,24.0,0.,24.0,0.,24.0,0.,24.0
1979-07-16 10:22:58.470 ,1,0,1.,24.0,2.,24.0,0.,24.0,0.,24.0
1979-07-16 10:23:22.470 ,0,1,0.,24.0,0.,24.0,1.,24.0,0.,24.0
1979-07-16 10:23:46.470 ,0,0,2.,24.0,0.,24.0,2.,24.0,0.,24.0
1979-07-16 10:24:10.470 ,0,1,1.,24.0,0.,24.0,0.,24.0,0.,24.0
1979-07-16 10:24:34.470 ,0,0,1.,24.0,0.,24.0,0.,24.0,0.,24.0
1979-07-16 10:24:58.470 ,1,1,0.,24.0,0.,24.0,0.,24.0,0.,24.0
1979-07-16 10:25:22.470 ,1,0,0.,24.0,0.,24.0,2.,24.0,0.,24.0
1979-07-16 10:25:46.470 ,2,1,0.,24.0,1.,24.0,1.,24.0,0.,24.0
1979-07-16 10:26:10.470 ,2,0,0.,24.0,0.,24.0,1.,24.0,0.,24.0
1979-07-16 10:26:34.470 ,3,1,0.,24.0,0.,24.0,3.,24.0,0.,24.0
1979-07-16 10:26:58.470 ,3,0,0.,24.0,0.,24.0,0.,24.0,0.,24.0
1979-07-16 10:27:22.470 ,4,1,0.,24.0,1.,24.0,0.,24.0,0.,24.0
1979-07-16 10:27:46.470 ,4,0,0.,24.0,0.,24.0,1.,24.0,0.,24.0
1979-07-16 10:28:10.470 ,5,1,0.,24.0,0.,24.0,2.,24.0,0.,24.0
1979-07-16 10:28:34.470 ,5,0,2.,24.0,1.,24.0,0.,24.0,0.,24.0
1979-07-16 10:28:58.470 ,6,1,1.,24.0,0.,24.0,0.,24.0,0.,24.0
1979-07-16 10:29:22.470 ,0,0,0.,24.0,0.,24.0,1.,24.0,0.,24.0
1979-07-16 10:29:46.470 ,7,1,12.,24.0,0.,24.0,2.,24.0,0.,24.0
1979-07-16 10:30:10.470 ,7,0,37.,24.0,0.,24.0,1.,24.0,0.,24.0
1979-07-16 10:30:34.470 ,7,1,28.,24.0,0.,24.0,0.,24.0,0.,24.0
1979-07-16 10:30:58.470 ,7,0,37.,24.0,0.,24.0,2.,24.0,0.,24.0
1979-07-16 10:31:22.470 ,6,1,21.,24.0,0.,24.0,2.,24.0,0.,24.0
1979-07-16 10:31:46.470 ,6,0,1.,24.0,1.,24.0,3.,24.0,0.,24.0
1979-07-16 10:32:10.470 ,5,1,1.,24.0,2.,24.0,1.,24.0,0.,24.0
1979-07-16 10:32:34.470 ,5,0,0.,24.0,1.,24.0,1.,24.0,0.,24.0
1979-07-16 10:32:58.470 ,4,1,2.,24.0,0.,24.0,0.,24.0,0.,24.0
1979-07-16 10:33:22.470 ,4,0,0.,24.0,0.,24.0,0.,24.0,0.,24.0
1979-07-16 10:33:46.470 ,3,1,0.,24.0,0.,24.0,1.,24.0,0.,24.0
1979-07-16 10:34:10.470 ,3,0,0.,24.0,0.,24.0,1.,24.0,0.,24.0
1979-07-16 10:34:34.470 ,2,1,0.,24.0,0.,24.0,0.,24.0,0.,24.0
1979-07-16 10:34:58.470 ,2,0,0.,24.0,0.,24.0,1.,24.0,0.,24.0
1979-07-16 10:35:22.470 ,1,1,0.,24.0,0.,24.0,0.,24.0,0.,24.0
1979-07-16 10:35:46.470 ,1,0,0.,24.0,1.,24.0,1.,24.0,0.,24.0
1979-07-16 10:36:10.470 ,0,1,0.,24.0,1.,24.0,0.,24.0,0.,24.0
1979-07-16 10:36:34.470 ,0,0,0.,24.0,0.,24.0,1.,24.0,0.,24.0
1979-07-16 10:36:58.470 ,0,1,0.,24.0,0.,24.0,0.,24.0,0.,24.0
1979-07-16 10:37:22.470 ,0,0,0.,24.0,0.,24.0,0.,24.0,0.,24.0
1979-07-16 10:37:46.470 ,1,1,0.,24.0,0.,24.0,0.,24.0,0.,24.0
1979-07-16 10:38:10.470 ,1,0,0.,24.0,0.,24.0,0.,24.0,0.,24.0
1979-07-16 10:38:34.470 ,2,1,0.,24.0,0.,24.0,0.,24.0,0.,24.0
1979-07-16 10:38:58.470 ,2,0,1.,24.0,0.,24.0,0.,24.0,0.,24.0
1979-07-16 10:39:22.470 ,3,1,,0,,0,,0,,0
1979-07-16 10:39:46.470 ,3,0,0.,24.0,0.,24.0,1.,24.0,0.,24.0
1979-07-16 10:40:10.470 ,4,1,1.,24.0,0.,24.0,0.,24.0,0.,24.0
1979-07-16 10:40:34.470 ,4,0,0.,24.0,1.,24.0,1.,24.0,0.,24.0
1979-07-16 10:40:58.470 ,5,1,0.,24.0,1.,24.0,1.,24.0,0.,24.0
1979-07-16 10:41:22.470 ,5,0,1.,24.0,0.,24.0,1.,24.0,0.,24.0
1979-07-16 10:41:46.470 ,6,1,0.,24.0,0.,24.0,3.,24.0,0.,24.0
1979-07-16 10:42:10.470 ,6,0,1.,24.0,0.,24.0,0.,24.0,0.,24.0
1979-07-16 10:42:34.470 ,7,0,7.,24.0,0.,24.0,0.,24.0,0.,24.0
1979-07-16 10:42:58.470 ,7,0,30.,24.0,0.,24.0,0.,24.0,0.,24.0
1979-07-16 10:43:22.470 ,5,1,15.,24.0,1.,24.0,0.,24.0,0.,24.0
1979-07-16 10:43:46.470 ,1,1,0.,24.0,0.,24.0,0.,24.0,0.,24.0
1979-07-16 10:44:10.470 ,2,1,0.,24.0,0.,24.0,1.,24.0,0.,24.0
1979-07-16 10:44:34.470 ,6,1,0.,24.0,0.,24.0,2.,24.0,0.,24.0
1979-07-16 10:44:58.470 ,5,1,15.,24.0,0.,24.0,1.,24.0,0.,24.0
1979-07-16 10:45:22.470 ,1,1,1.,24.0,0.,24.0,0.,24.0,0.,24.0
1979-07-16 10:45:46.470 ,2,1,0.,24.0,0.,24.0,0.,24.0,0.,24.0
1979-07-16 10:46:10.470 ,6,1,1.,24.0,0.,24.0,2.,24.0,0.,24.0
1979-07-16 10:46:34.470 ,5,1,19.,24.0,0.,24.0,0.,24.0,0.,24.0
1979-07-16 10:46:58.470 ,1,1,1.,24.0,1.,24.0,1.,24.0,0.,24.0
1979-07-16 10:47:22.470 ,2,1,1.,24.0,0.,24.0,1.,24.0,0.,24.0
1979-07-16 10:47:46.470 ,6,1,0.,24.0,0.,24.0,1.,24.0,0.,24.0
1979-07-16 10:48:10.470 ,5,1,20.,24.0,0.,24.0,0.,24.0,0.,24.0
1979-07-16 10:48:34.470 ,1,1,0.,24.0,0.,24.0,0.,24.0,0.,24.0
1979-07-16 10:48:58.470 ,2,1,0.,24.0,0.,24.0,0.,24.0,0.,24.0
1979-07-16 10:49:22.470 ,6,1,0.,24.0,0.,24.0,0.,24.0,0.,24.0
1979-07-16 10:49:46.470 ,5,1,17.,24.0,0.,24.0,1.,24.0,0.,24.0
1979-07-16 10:50:10.470 ,1,1,0.,24.0,0.,24.0,0.,24.0,0.,24.0
1979-07-16 10:50:34.470 ,2,1,0.,24.0,0.,24.0,0.,24.0,0.,24.0
1979-07-16 10:50:58.470 ,6,1,1.,24.0,0.,24.0,0.,24.0,0.,24.0
1979-07-16 10:51:22.470 ,5,1,14.,24.0,0.,24.0,0.,24.0,0.,24.0
1979-07-16 10:51:46.470 ,1,1,0.,24.0,1.,24.0,0.,24.0,0.,24.0
1979-07-16 10:52:10.470 ,2,1,0.,24.0,0.,24.0,0.,24.0,0.,24.0
1979-07-16 10:52:34.470 ,6,1,0.,24.0,0.,24.0,0.,24.0,0.,24.0
1979-07-16 10:52:58.470 ,5,1,8.,24.0,0.,24.0,0.,24.0,0.,24.0
1979-07-16 10:53:22.470 ,1,1,0.,24.0,1.,24.0,0.,24.0,0.,24.0
1979-07-16 10:53:46.470 ,0,0,0.,24.0,0.,24.0,1.,24.0,0.,24.0
1979-07-16 10:54:10.470 ,0,0,0.,24.0,0.,24.0,0.,24.0,0.,24.0
1979-07-16 10:54:34.470 ,5,1,16.,24.0,0.,24.0,1.,24.0,0.,24.0
1979-07-16 10:54:58.470 ,5,0,1.,24.0,0.,24.0,0.,24.0,0.,24.0
1979-07-16 10:55:22.470 ,4,1,0.,24.0,0.,24.0,0.,24.0,0.,24.0
1979-07-16 10:55:46.470 ,4,0,0.,24.0,1.,24.0,0.,24.0,0.,24.0
1979-07-16 10:56:10.470 ,3,1,1.,24.0,0.,24.0,0.,24.0,0.,24.0
1979-07-16 10:56:34.470 ,3,0,0.,24.0,0.,24.0,0.,24.0,0.,24.0
1979-07-16 10:56:58.470 ,2,1,0.,24.0,0.,24.0,0.,24.0,0.,24.0
1979-07-16 10:57:22.470 ,2,0,0.,24.0,0.,24.0,0.,24.0,0.,24.0
1979-07-16 10:57:46.470 ,1,1,0.,24.0,1.,24.0,0.,24.0,0.,24.0
1979-07-16 10:58:10.470 ,1,0,0.,24.0,1.,24.0,0.,24.0,0.,24.0
1979-07-16 10:58:34.470 ,0,1,0.,24.0,0.,24.0,0.,24.0,0.,24.0
1979-07-16 10:58:58.470 ,0,0,0.,24.0,0.,24.0,0.,24.0,0.,24.0
1979-07-16 10:59:22.470 ,0,1,1.,24.0,0.,24.0,0.,24.0,0.,24.0
1979-07-16 10:59:46.470 ,0,0,1.,24.0,0.,24.0,0.,24.0,0.,24.0
1979-07-16 11:00:10.470 ,1,1,0.,24.0,0.,24.0,0.,24.0,0.,24.0
1979-07-16 11:00:34.470 ,1,0,0.,24.0,0.,24.0,1.,24.0,0.,24.0
1979-07-16 11:00:58.470 ,2,1,0.,24.0,0.,24.0,0.,24.0,0.,24.0
1979-07-16 11:01:22.470 ,2,0,0.,24.0,0.,24.0,0.,24.0,0.,24.0
1979-07-16 11:01:46.470 ,3,1,1.,24.0,0.,24.0,1.,24.0,0.,24.0
1979-07-16 11:02:10.470 ,3,0,0.,24.0,0.,24.0,0.,24.0,0.,24.0
1979-07-16 11:02:34.470 ,4,1,0.,24.0,1.,24.0,0.,24.0,0.,24.0
1979-07-16 11:02:58.470 ,4,0,3.,24.0,0.,24.0,0.,24.0,0.,24.0
1979-07-16 11:03:22.470 ,5,1,0.,24.0,0.,24.0,1.,24.0,0.,24.0
1979-07-16 11:03:46.470 ,5,0,0.,24.0,0.,24.0,0.,24.0,0.,24.0
1979-07-16 11:04:10.470 ,6,1,0.,24.0,1.,24.0,0.,24.0,0.,24.0
1979-07-16 11:04:34.470 ,6,0,0.,24.0,1.,24.0,0.,24.0,0.,24.0
1979-07-16 11:04:58.470 ,7,1,7.,24.0,0.,24.0,0.,24.0,0.,24.0
1979-07-16 11:05:22.470 ,7,0,30.,24.0,0.,24.0,0.,24.0,0.,24.0
1979-07-16 11:05:46.470 ,7,1,25.,24.0,0.,24.0,0.,24.0,0.,24.0
1979-07-16 11:06:10.470 ,7,0,31.,24.0,0.,24.0,0.,24.0,0.,24.0
1979-07-16 11:06:34.470 ,6,1,22.,24.0,0.,24.0,1.,24.0,0.,24.0
1979-07-16 11:06:58.470 ,6,0,0.,24.0,1.,24.0,0.,24.0,0.,24.0
1979-07-16 11:07:22.470 ,5,1,0.,24.0,1.,24.0,0.,24.0,0.,24.0
1979-07-16 11:07:46.470 ,5,0,0.,24.0,1.,24.0,1.,24.0,0.,24.0
1979-07-16 11:08:10.470 ,4,1,1.,24.0,0.,24.0,0.,24.0,0.,24.0
1979-07-16 11:08:34.470 ,4,0,0.,24.0,0.,24.0,0.,24.0,0.,24.0
1979-07-16 11:08:58.470 ,3,1,0.,24.0,0.,24.0,0.,24.0,0.,24.0
1979-07-16 11:09:22.470 ,3,0,0.,24.0,0.,24.0,0.,24.0,0.,24.0
1979-07-16 11:09:46.470 ,2,1,0.,24.0,0.,24.0,0.,24.0,0.,24.0
1979-07-16 11:10:10.470 ,2,0,1.,24.0,0.,24.0,0.,24.0,0.,24.0
1979-07-16 11:10:34.470 ,1,1,1.,24.0,0.,24.0,0.,24.0,0.,24.0
1979-07-16 11:10:58.470 ,1,0,0.,24.0,0.,24.0,0.,24.0,0.,24.0
1979-07-16 11:11:22.470 ,0,1,0.,24.0,1.,24.0,0.,24.0,0.,24.0
1979-07-16 11:11:46.470 ,0,0,2.,24.0,0.,24.0,1.,24.0,0.,24.0
1979-07-16 11:12:10.470 ,0,1,0.,24.0,0.,24.0,0.,24.0,0.,24.0
1979-07-16 11:12:34.470 ,0,0,0.,24.0,1.,24.0,0.,24.0,0.,24.0
1979-07-16 11:12:58.470 ,1,1,1.,24.0,0.,24.0,0.,24.0,0.,24.0
1979-07-16 11:13:22.470 ,1,0,0.,24.0,0.,24.0,1.,24.0,0.,24.0
1979-07-16 11:13:46.470 ,2,1,0.,24.0,0.,24.0,0.,24.0,0.,24.0
1979-07-16 11:14:10.470 ,2,0,0.,24.0,0.,24.0,0.,24.0,0.,24.0
1979-07-16 11:14:34.470 ,3,1,0.,24.0,0.,24.0,0.,24.0,0.,24.0
1979-07-16 11:14:58.470 ,3,0,0.,24.0,0.,24.0,0.,24.0,0.,24.0
1979-07-16 11:15:22.470 ,4,1,0.,24.0,0.,24.0,0.,24.0,0.,24.0
1979-07-16 11:15:46.470 ,4,0,0.,24.0,0.,24.0,0.,24.0,0.,24.0
1979-07-16 11:16:10.470 ,5,1,0.,24.0,0.,24.0,0.,24.0,0.,24.0
1979-07-16 11:16:34.470 ,5,0,1.,24.0,1.,24.0,0.,24.0,0.,24.0
1979-07-16 11:16:58.470 ,6,1,0.,24.0,0.,24.0,1.,24.0,0.,24.0
1979-07-16 11:17:22.470 ,6,0,0.,24.0,0.,24.0,1.,24.0,0.,24.0
1979-07-16 11:17:46.470 ,7,1,10.,24.0,0.,24.0,0.,24.0,0.,24.0
1979-07-16 11:18:10.470 ,7,0,27.,24.0,0.,24.0,0.,24.0,0.,24.0
1979-07-16 11:18:34.470 ,7,1,36.,24.0,0.,24.0,0.,24.0,0.,24.0
1979-07-16 11:18:58.470 ,7,0,35.,24.0,0.,24.0,0.,24.0,0.,24.0
1979-07-16 11:19:22.470 ,6,1,20.,24.0,0.,24.0,0.,24.0,0.,24.0
1979-07-16 11:19:46.470 ,6,0,0.,24.0,0.,24.0,0.,24.0,0.,24.0
1979-07-16 11:20:10.470 ,5,1,1.,24.0,0.,24.0,1.,24.0,0.,24.0
1979-07-16 11:20:34.470 ,5,0,1.,24.0,1.,24.0,0.,24.0,0.,24.0
1979-07-16 11:20:58.470 ,4,1,0.,24.0,0.,24.0,0.,24.0,0.,24.0
1979-07-16 11:21:22.470 ,4,0,0.,24.0,0.,24.0,0.,24.0,0.,24.0
1979-07-16 11:21:46.470 ,3,1,0.,24.0,0.,24.0,0.,24.0,0.,24.0
1979-07-16 11:22:10.470 ,3,0,2.,24.0,0.,24.0,1.,24.0,0.,24.0
1979-07-16 11:22:34.470 ,2,1,0.,24.0,0.,24.0,0.,24.0,0.,24.0
1979-07-16 11:22:58.470 ,2,0,1.,24.0,0.,24.0,0.,24.0,0.,24.0
1979-07-16 11:23:22.470 ,1,1,0.,24.0,0.,24.0,1.,24.0,0.,24.0
1979-07-16 11:23:46.470 ,0,0,1.,24.0,0.,24.0,0.,24.0,0.,24.0
1979-07-16 11:24:10.470 ,0,1,0.,24.0,0.,24.0,0.,24.0,0.,24.0
1979-07-16 11:24:34.470 ,0,0,1.,24.0,0.,24.0,0.,24.0,0.,24.0
1979-07-16 11:24:58.470 ,0,1,0.,24.0,0.,24.0,0.,24.0,0.,24.0
1979-07-16 11:25:22.470 ,0,0,0.,24.0,1.,24.0,0.,24.0,0.,24.0
1979-07-16 11:25:46.470 ,1,1,0.,24.0,0.,24.0,0.,24.0,0.,24.0
1979-07-16 11:26:10.470 ,1,0,0.,24.0,0.,24.0,0.,24.0,0.,24.0
1979-07-16 11:26:34.470 ,2,1,1.,24.0,0.,24.0,0.,24.0,0.,24.0
1979-07-16 11:26:58.470 ,2,0,1.,24.0,0.,24.0,1.,24.0,0.,24.0
1979-07-16 11:27:22.470 ,3,1,0.,24.0,0.,24.0,0.,24.0,0.,24.0
1979-07-16 11:27:46.470 ,3,0,0.,24.0,0.,24.0,0.,24.0,0.,24.0
1979-07-16 11:28:10.470 ,4,1,0.,24.0,0.,24.0,0.,24.0,0.,24.0
1979-07-16 11:28:34.470 ,4,0,1.,24.0,0.,24.0,0.,24.0,0.,24.0
1979-07-16 11:28:58.470 ,5,1,0.,24.0,0.,24.0,0.,24.0,0.,24.0
1979-07-16 11:29:22.470 ,5,0,0.,24.0,0.,24.0,0.,24.0,0.,24.0
1979-07-16 11:29:46.470 ,6,1,0.,24.0,0.,24.0,0.,24.0,0.,24.0
1979-07-16 11:30:10.470 ,6,0,0.,24.0,0.,24.0,0.,24.0,0.,24.0
1979-07-16 11:30:34.470 ,7,0,10.,24.0,0.,24.0,0.,24.0,0.,24.0
1979-07-16 11:30:58.470 ,7,0,25.,24.0,0.,24.0,0.,24.0,0.,24.0
1979-07-16 11:31:22.470 ,5,1,15.,24.0,0.,24.0,0.,24.0,0.,24.0
1979-07-16 11:31:46.470 ,1,1,0.,24.0,0.,24.0,0.,24.0,0.,24.0
1979-07-16 11:32:10.470 ,2,1,0.,24.0,0.,24.0,0.,24.0,0.,24.0
1979-07-16 11:32:34.470 ,6,1,0.,24.0,0.,24.0,0.,24.0,0.,24.0
1979-07-16 11:32:58.470 ,5,1,11.,24.0,0.,24.0,1.,24.0,0.,24.0
1979-07-16 11:33:22.470 ,1,1,0.,24.0,0.,24.0,0.,24.0,0.,24.0
1979-07-16 11:33:46.470 ,2,1,1.,24.0,0.,24.0,0.,24.0,0.,24.0
1979-07-16 11:34:10.470 ,6,1,1.,24.0,0.,24.0,0.,24.0,0.,24.0